Location: La Tine
(46.4708°N, 7.0525°E)
Time: 00:17:38
(UTC+00:00)

Meteor 1-24 Rocket - Pass Details

Date: 18 January 2021
Orbit: 791 x 926 km, 81.3° (Epoch: 03 March)

Event Time Altitude Azimuth Distance (km) Brightness Sun altitude
Exits shadow 03:09:42 21° 69° (ENE) 1,772 5.8 -40.7°
Drops below altitude 10° 03:13:32 10° 114° (ESE) 2,444 6.6 -40.1°
Sets 03:16:34 0° 129° (SE) 3,399 7.3 -39.6°
